N1IJV-10 Weather Reports


time (UTC)temp
C
wind
direction
speed
KPH
gust
KPH
rain 1hr
cm
rain 24hr
cm
rain mn
cm
humidity
%
barometer
mb
20260503233644 20 286 6.4 9.7 0.00 0.15 0.15 48 1005.0
20260503233140 20 316 4.8 8.0 0.00 0.15 0.15 48 1005.3
20260503232637 20 199 1.6 11.3 0.00 0.15 0.15 49 1005.1
20260503232134 20 180 4.8 12.9 0.00 0.15 0.15 48 1005.1
20260503231632 20 241 8.0 14.5 0.00 0.15 0.15 47 1005.0
20260503231128 20 296 8.0 11.3 0.00 0.15 0.15 48 1005.2
20260503230625 20 194 8.0 12.9 0.00 0.15 0.15 47 1005.3
20260503230123 20 261 8.0 11.3 0.00 0.15 0.15 47 1005.2
20260503225620 20 207 3.2 8.0 0.00 0.15 0.15 47 1005.2
20260503225119 20 146 9.7 20.9 0.00 0.15 0.15 47 1005.3
20260503224617 20 338 4.8 20.9 0.00 0.15 0.15 47 1005.4
20260503224115 20 251 4.8 11.3 0.00 0.15 0.15 47 1005.3
20260503223613 20 293 8.0 16.1 0.00 0.15 0.15 46 1005.4
20260503223108 20 168 8.0 16.1 0.00 0.15 0.15 45 1005.4
20260503222606 19 31 6.4 24.1 0.00 0.15 0.15 46 1005.6
20260503222104 20 244 11.3 14.5 0.00 0.15 0.15 45 1005.3
20260503221602 20 196 4.8 14.5 0.00 0.15 0.15 45 1005.6
20260503221059 20 110 4.8 11.3 0.00 0.15 0.15 45 1005.5
20260503220555 20 172 9.7 12.9 0.00 0.15 0.15 45 1005.8
20260503220052 20 148 6.4 8.0 0.00 0.15 0.15 45 1005.7
20260503215549 20 152 9.7 14.5 0.00 0.15 0.15 44 1005.7
20260503215046 20 333 4.8 11.3 0.00 0.15 0.15 45 1005.8
20260503214544 20 270 8.0 9.7 0.00 0.15 0.15 42 1005.7
20260503214041 20 296 9.7 16.1 0.00 0.15 0.15 43 1005.8
20260503213539 20 75 3.2 8.0 0.00 0.15 0.15 45 1006.0
20260503213035 20 186 6.4 12.9 0.00 0.15 0.15 47 1005.9
20260503212533 20 68 4.8 14.5 0.00 0.15 0.15 45 1006.1
20260503212030 18 142 3.2 8.0 0.00 0.15 0.15 48 1006.3
20260503211527 18 80 3.2 12.9 0.00 0.15 0.15 48 1006.4
20260503211023 18 264 4.8 9.7 0.00 0.15 0.15 47 1006.3
20260503210520 20 293 4.8 14.5 0.00 0.15 0.15 46 1006.4
20260503210015 19 258 8.0 14.5 0.00 0.15 0.15 45 1006.8
20260503205512 19 265 6.4 16.1 0.00 0.15 0.15 44 1006.8
20260503205009 19 216 11.3 17.7 0.00 0.15 0.15 44 1006.9
20260503204506 20 298 9.7 16.1 0.00 0.15 0.15 44 1007.1
20260503204002 20 289 6.4 17.7 0.00 0.15 0.15 44 1007.0
20260503203500 18 77 8.0 11.3 0.00 0.15 0.15 46 1007.1
20260503202956 18 197 8.0 14.5 0.00 0.15 0.15 45 1007.4
20260503202455 18 202 6.4 24.1 0.00 0.15 0.15 45 1007.5
20260503201953 18 291 9.7 14.5 0.00 0.15 0.15 44 1007.5
20260503201450 17 200 6.4 12.9 0.00 0.15 0.15 46 1007.6
20260503200947 18 316 9.7 16.1 0.00 0.15 0.15 45 1007.6
20260503200444 18 244 14.5 22.5 0.00 0.15 0.15 44 1007.6
20260503195940 18 270 8.0 27.4 0.00 0.15 0.15 44 1007.8
20260503195438 18 229 8.0 22.5 0.00 0.15 0.15 44 1007.6
20260503194934 20 216 9.7 17.7 0.00 0.15 0.15 45 1007.7
20260503194431 19 244 4.8 14.5 0.00 0.15 0.15 48 1007.7
20260503193926 18 151 6.4 14.5 0.00 0.15 0.15 48 1007.9
20260503193422 18 145 3.2 14.5 0.00 0.15 0.15 51 1007.9
20260503192918 18 195 6.4 14.5 0.00 0.15 0.15 52 1008.1
20260503192415 17 172 4.8 22.5 0.00 0.15 0.15 52 1008.2
20260503191910 17 288 17.7 24.1 0.00 0.15 0.15 52 1008.2
20260503191408 17 183 6.4 14.5 0.00 0.15 0.15 55 1008.1
20260503190904 17 153 4.8 12.9 0.00 0.15 0.15 54 1008.4
20260503190402 16 193 8.0 12.9 0.00 0.15 0.15 59 1008.3
20260503185858 16 342 4.8 9.7 0.00 0.15 0.15 63 1008.4
20260503185355 16 175 8.0 12.9 0.00 0.15 0.15 62 1008.2
20260503184854 16 312 3.2 11.3 0.00 0.15 0.15 61 1008.8
20260503184350 15 172 6.4 16.1 0.00 0.15 0.15 61 1008.7
20260503183847 15 142 8.0 9.7 0.00 0.15 0.15 63 1008.8
20260503183344 15 183 4.8 14.5 0.00 0.15 0.15 65 1008.9
20260503182841 15 265 6.4 11.3 0.00 0.15 0.15 67 1009.1
20260503182340 14 196 3.2 17.7 0.00 0.15 0.15 66 1009.2
20260503181837 14 119 6.4 12.9 0.00 0.15 0.15 66 1009.1
20260503181334 13 280 1.6 11.3 0.00 0.15 0.15 69 1009.2
20260503180830 13 106 1.6 8.0 0.00 0.15 0.15 73 1009.6
20260503180328 12 91 1.6 8.0 0.00 0.15 0.15 76 1009.7
20260503175824 12 62 4.8 9.7 0.00 0.15 0.15 74 1009.8
20260503175323 12 197 4.8 11.3 0.00 0.15 0.15 74 1010.0
20260503174818 12 129 6.4 9.7 0.00 0.15 0.15 75 1010.1
20260503174316 12 122 1.6 9.7 0.00 0.15 0.15 75 1009.9
20260503173811 11 138 1.6 4.8 0.00 0.15 0.15 78 1010.1
20260503173308 11 113 4.8 9.7 0.00 0.15 0.15 79 1010.6
20260503172804 10 66 3.2 11.3 0.00 0.15 0.15 82 1010.7
20260503172305 10 154 4.8 9.7 0.00 0.15 0.15 85 1011.0
20260503171758 10 123 3.2 4.8 0.00 0.15 0.15 86 1010.9
20260503171255 10 111 1.6 4.8 0.00 0.15 0.15 85 1011.2
20260503170752 9 153 8.0 12.9 0.13 0.15 0.15 85 1011.4
20260503170249 9 110 3.2 4.8 0.13 0.15 0.15 88 1011.6
20260503160211 8 176 1.6 3.2 0.00 0.08 0.08 88 1012.8
20260503150641 12 226 11.3 20.9 0.00 0.00 0.00 65 1013.3
20260503150137 12 211 4.8 12.9 0.00 0.00 0.00 61 1013.2
20260503131031 10 165 4.8 8.0 0.00 0.00 0.00 64 1013.5
20260503130528 10 198 8.0 14.5 0.00 0.00 0.00 63 1013.5
20260503110419 7 227 4.8 4.8 0.00 0.00 0.00 67 1013.2
20260503090304 6 123 0.0 1.6 0.00 0.00 0.00 69 1013.8
20260503081231 6 125 0.0 1.6 0.00 0.00 0.00 66 1014.2
20260503080727 6 133 1.6 1.6 0.00 0.00 0.00 65 1014.0
20260503080224 6 228 1.6 3.2 0.00 0.00 0.00 64 1014.2
20260503072701 6 127 1.6 1.6 0.00 0.00 0.00 64 1014.2
20260503072158 6 142 0.0 3.2 0.00 0.00 0.00 64 1014.1
20260503071654 6 173 1.6 1.6 0.00 0.00 0.00 65 1014.1
20260503071151 6 104 1.6 1.6 0.00 0.00 0.00 64 1014.4
20260503070648 6 123 1.6 1.6 0.00 0.00 0.00 63 1014.3
20260503070146 6 164 1.6 1.6 0.00 0.00 0.00 64 1014.2
20260503060110 6 93 1.6 1.6 0.00 0.00 0.00 62 1015.1
20260503055102 7 158 1.6 3.2 0.00 0.00 0.00 61 1014.9
20260503054557 7 168 1.6 1.6 0.00 0.00 0.00 61 1014.9
20260503054055 7 156 0.0 1.6 0.00 0.00 0.00 61 1015.0
20260503053553 7 134 1.6 1.6 0.00 0.00 0.00 61 1015.1
20260503053050 7 110 0.0 3.2 0.00 0.00 0.00 60 1015.1
20260503052547 7 107 0.0 1.6 0.00 0.00 0.00 60 1015.0
20260503052043 7 118 0.0 1.6 0.00 0.00 0.00 60 1015.2
20260503051539 7 198 0.0 1.6 0.00 0.00 0.00 60 1015.2
20260503051037 7 135 0.0 1.6 0.00 0.00 0.00 59 1015.2
20260503050532 7 126 0.0 1.6 0.00 0.00 0.00 59 1015.1
20260503050030 7 120 0.0 1.6 0.00 0.00 0.00 58 1015.3
20260503045527 7 153 1.6 3.2 0.00 0.00 0.00 59 1015.2
20260503045024 7 125 0.0 0.0 0.00 0.00 0.00 59 1015.4
20260503044521 7 145 0.0 1.6 0.00 0.00 0.00 59 1015.4
20260503044019 7 174 1.6 3.2 0.00 0.00 0.00 58 1015.4
20260503043514 7 179 3.2 4.8 0.00 0.00 0.00 58 1015.3
20260503043011 8 160 1.6 1.6 0.00 0.00 0.00 59 1015.3
20260503042508 8 134 1.6 4.8 0.00 0.00 0.00 58 1015.2
20260503042004 8 167 1.6 1.6 0.00 0.00 0.00 57 1015.4
20260503041501 8 149 1.6 1.6 0.00 0.00 0.00 56 1015.0
20260503040959 8 180 1.6 3.2 0.00 0.00 0.00 58 1015.2
20260503040456 8 156 1.6 4.8 0.00 0.00 0.00 59 1015.4
20260503035953 8 141 1.6 1.6 0.00 0.00 0.00 58 1015.5
20260503035450 8 276 1.6 3.2 0.00 0.00 0.00 59 1015.5
20260503034948 8 118 1.6 1.6 0.00 0.00 0.00 61 1015.6
20260503034445 7 155 0.0 1.6 0.00 0.00 0.00 60 1015.6
20260503033942 7 157 1.6 1.6 0.00 0.00 0.00 61 1015.6
20260503033439 7 91 0.0 1.6 0.00 0.00 0.00 62 1015.5
20260503032937 8 1 1.6 1.6 0.00 0.00 0.00 62 1015.3
20260503032435 8 150 1.6 1.6 0.00 0.00 0.00 60 1015.8
20260503031932 8 243 1.6 3.2 0.00 0.00 0.00 60 1015.5
20260503031430 8 115 0.0 0.0 0.00 0.00 0.00 62 1015.7
20260503030927 8 121 0.0 1.6 0.00 0.00 0.00 61 1015.7
20260503030423 8 112 0.0 1.6 0.00 0.00 0.00 60 1015.6
20260503025920 8 119 0.0 3.2 0.00 0.00 0.00 60 1015.7
20260503025417 8 160 0.0 1.6 0.00 0.00 0.00 59 1015.5
20260503024914 8 120 0.0 1.6 0.00 0.00 0.00 59 1015.6
20260503024411 8 114 1.6 1.6 0.00 0.00 0.00 58 1015.5
20260503023908 8 171 1.6 1.6 0.00 0.00 0.00 58 1015.7
20260503023404 8 112 0.0 0.0 0.00 0.00 0.00 59 1015.5
20260503022901 8 125 1.6 1.6 0.00 0.00 0.00 58 1015.5
20260503022356 8 131 1.6 1.6 0.00 0.00 0.00 57 1015.5
20260503021853 9 119 0.0 1.6 0.00 0.00 0.00 56 1015.7
20260503021349 9 103 0.0 1.6 0.00 0.00 0.00 57 1015.5
20260503020846 9 109 0.0 3.2 0.00 0.00 0.00 57 1015.4
20260503020344 9 128 1.6 1.6 0.00 0.00 0.00 55 1015.6
20260503015840 9 157 0.0 3.2 0.00 0.00 0.00 56 1015.7
20260503015337 9 149 1.6 1.6 0.00 0.00 0.00 55 1015.5
20260503014833 10 160 1.6 3.2 0.00 0.00 0.00 54 1015.6
20260503014331 9 143 0.0 1.6 0.00 0.00 0.00 54 1015.3
20260503013828 9 155 0.0 1.6 0.00 0.00 0.00 54 1015.3
20260503013325 9 126 0.0 0.0 0.00 0.00 0.00 56 1015.6
20260503012822 9 159 1.6 1.6 0.00 0.00 0.00 55 1015.4
20260503012320 9 129 0.0 0.0 0.00 0.00 0.00 55 1015.3
20260503011817 9 115 0.0 0.0 0.00 0.00 0.00 57 1015.4
20260503011314 9 114 0.0 0.0 0.00 0.00 0.00 57 1015.3
20260503010810 9 116 0.0 0.0 0.00 0.00 0.00 59 1015.4
20260503010307 10 110 0.0 0.0 0.00 0.00 0.00 57 1015.3
20260503005804 10 109 0.0 0.0 0.00 0.00 0.00 56 1015.4
20260503005304 10 113 0.0 0.0 0.00 0.00 0.00 55 1015.4
20260503004757 10 116 0.0 0.0 0.00 0.00 0.00 55 1015.3
20260503004255 10 122 0.0 0.0 0.00 0.00 0.00 51 1015.3
20260503003753 10 114 0.0 0.0 0.00 0.00 0.00 50 1015.1
20260503003249 11 128 0.0 0.0 0.00 0.00 0.00 49 1015.5
20260503002746 11 126 0.0 1.6 0.00 0.00 0.00 48 1015.5
20260503002243 11 91 0.0 0.0 0.00 0.00 0.00 49 1015.2
20260503001739 11 183 1.6 3.2 0.00 0.00 0.00 46 1015.4
20260503001235 12 85 0.0 1.6 0.00 0.00 0.00 47 1015.6
20260503000734 12 103 1.6 1.6 0.00 0.00 0.00 45 1015.7
20260503000233 12 80 1.6 3.2 0.00 0.00 0.00 44 1015.5
20260502235727 12 112 3.2 8.0 0.00 0.00 0.00 46 1015.4
20260502235226 12 57 3.2 4.8 0.00 0.00 0.00 46 1015.5
20260502234721 12 305 3.2 8.0 0.00 0.00 0.00 45 1015.8
20260502234219 12 310 6.4 8.0 0.00 0.00 0.00 43 1015.6